Weather History for Friday Harbor, WA

Change the Weather History Date:

Thursday, November 28, 2013

  Actual Average Record
Temperature  
Mean Temperature 42 °F -  
Max Temperature 51 °F 45 °F 52 °F (1999)
Min Temperature 34 °F 36 °F 30 °F (2000)
Degree Days  
Heating Degree Days 22    
Moisture  
Dew Point 38 °F    
Average Humidity 92    
Maximum Humidity 100    
Minimum Humidity 66    
Precipitation  
Precipitation 0.00 in - - ()
Sea Level Pressure  
Sea Level Pressure 30.09 in    
Wind  
Wind Speed 0 mph (South)    
Max Wind Speed 4 mph    
Max Gust Speed -    
Visibility 6 miles    
Events Rain    
Averages and records for this station are not official NWS values.
T = Trace of Precipitation, MM = Missing Value Source: NWS Daily Summary

Daily Weather History Graph

Daily Weather History Graph

Search for Another Location

Airport:

Trip Planner

Search our weather history database for the weather conditions in past years. The results will help you decide how hot, cold, wet, or windy it might be!

Date:

Astronomy

Nov. 28, 2013 Rise Set
Actual Time 7:39 AM PST 4:20 PM PST
Civil Twilight 7:03 AM PST 4:56 PM PST
Nautical Twilight 6:24 AM PST 5:35 PM PST
Astronomical Twilight 5:46 AM PST 6:13 PM PST
Moon 2:26 AM PST (11/28) 1:52 PM PST (11/28)
Length of Visible Light 9h 52m
Length of Day
8h 41m
Waning Crescent, 21% of the Moon is Illuminated
Nov 28
Waning Crescent
Dec 2
New
Dec 9
First Quarter
Dec 17
Full
Dec 25
Last Quarter

Hourly Weather History & Observations

Time (PST) Temp. Windchill Dew Point Humidity Pressure Visibility Wind Dir Wind Speed Gust Speed Precip Events Conditions
12:53 AM 37.0 °F - 37.0 °F 100% 30.05 in 8.0 mi Calm Calm - N/A   Clear
1:53 AM 37.9 °F - 37.9 °F 100% 30.05 in 6.0 mi Calm Calm - N/A   Clear
2:08 AM 36.0 °F - 35.1 °F 97% 30.05 in 1.5 mi Calm Calm - N/A   Clear
2:19 AM 37.0 °F - 36.0 °F 96% 30.05 in 3.0 mi Calm Calm - N/A   Clear
2:45 AM 37.9 °F - 37.0 °F 97% 30.05 in 2.5 mi Calm Calm - N/A   Clear
2:53 AM 39.0 °F - 37.9 °F 96% 30.06 in 5.0 mi Calm Calm - N/A   Clear
3:53 AM 36.0 °F - 36.0 °F 100% 30.06 in 3.0 mi Calm Calm - N/A   Clear
3:59 AM 36.0 °F - 35.1 °F 97% 30.06 in 1.8 mi Calm Calm - N/A   Clear
4:19 AM 37.9 °F - 37.0 °F 97% 30.06 in 3.0 mi Calm Calm - N/A   Clear
4:53 AM 35.1 °F - 35.1 °F 100% 30.06 in 1.8 mi Calm Calm - N/A   Clear
5:03 AM 37.9 °F - 36.0 °F 93% 30.06 in 3.0 mi Calm Calm - N/A   Clear
5:22 AM 35.1 °F - 35.1 °F 100% 30.06 in 1.5 mi Calm Calm - N/A   Clear
5:35 AM 37.0 °F - 36.0 °F 96% 30.07 in 4.0 mi Calm Calm - N/A   Clear
5:53 AM 37.0 °F - 36.0 °F 96% 30.08 in 7.0 mi Calm Calm - N/A   Clear
6:13 AM 35.1 °F - 33.1 °F 92% 30.07 in 1.8 mi Calm Calm - N/A   Clear
6:31 AM 34.0 °F - 33.1 °F 96% 30.07 in 2.5 mi Calm Calm - N/A   Clear
6:38 AM 37.0 °F - 35.1 °F 93% 30.08 in 5.0 mi Calm Calm - N/A   Clear
6:53 AM 37.0 °F 34.5 °F 36.0 °F 96% 30.09 in 6.0 mi West 3.5 mph - N/A   Clear
7:32 AM 36.0 °F - 35.1 °F 97% 30.08 in 2.0 mi Calm Calm - N/A   Clear
7:53 AM 35.1 °F - 35.1 °F 100% 30.09 in 3.0 mi Calm Calm - N/A   Clear
8:14 AM 37.9 °F - 37.0 °F 97% 30.10 in 1.8 mi Calm Calm - N/A   Clear
8:24 AM 37.0 °F - 37.0 °F 100% 30.09 in 3.0 mi Calm Calm - N/A   Clear
8:53 AM 39.0 °F - 37.9 °F 96% 30.10 in 5.0 mi Calm Calm - N/A   Clear
9:53 AM 44.1 °F - 42.1 °F 93% 30.10 in 9.0 mi Calm Calm - N/A   Clear
10:53 AM 46.9 °F - 43.0 °F 86% 30.12 in 10.0 mi Calm Calm - N/A   Clear
11:53 AM 48.0 °F - 41.0 °F 77% 30.11 in 10.0 mi ESE 3.5 mph - N/A   Clear
12:53 PM 51.1 °F - 39.9 °F 66% 30.11 in 10.0 mi Calm Calm - N/A   Clear
1:53 PM 48.9 °F - 39.9 °F 71% 30.12 in 10.0 mi Calm Calm - N/A   Overcast
2:53 PM 48.0 °F - 41.0 °F 77% 30.11 in 10.0 mi Calm Calm - N/A   Overcast
3:53 PM 46.9 °F - 39.0 °F 74% 30.12 in 10.0 mi Calm Calm - N/A   Scattered Clouds
4:53 PM 45.0 °F - 39.0 °F 80% 30.13 in 10.0 mi Calm Calm - N/A   Overcast
5:53 PM 44.1 °F - 39.0 °F 82% 30.13 in 10.0 mi Calm Calm - N/A   Overcast
6:53 PM 44.1 °F - 39.9 °F 85% 30.14 in 10.0 mi Calm Calm - N/A   Overcast
7:53 PM 44.1 °F - 42.1 °F 93% 30.14 in 10.0 mi Calm Calm - 0.00 in   Mostly Cloudy
8:53 PM 45.0 °F - 43.0 °F 93% 30.15 in 10.0 mi Calm Calm - 0.00 in Rain Light Rain
9:53 PM 45.0 °F - 43.0 °F 93% 30.16 in 10.0 mi Calm Calm - 0.00 in   Overcast
10:53 PM 45.0 °F - 43.0 °F 93% 30.17 in 10.0 mi Calm Calm - N/A   Overcast
11:53 PM 45.0 °F - 43.0 °F 93% 30.19 in 10.0 mi Calm Calm - N/A   Overcast